Regional Weather Roundup
Issued by NWS

Home | Current Version | Previous Version | Text Only | Print | Product List | Glossary On
Versions: 1 2 3 4 5 6 7 8 9 10 11 12 13 14 15 16 17 18 19 20 21 22 23 24 25 26 27 28 29 30 31 32 33 34 35 36 37 38 39 40 41 42 43 44 45 46 47 48 49 50
000
ASUS43 KDTX 010610
RWRMI
MICHIGAN HOURLY REGIONAL WEATHER ROUNDUP
NATIONAL WEATHER SERVICE DETROIT/PONTIAC MI
200 AM EDT TUE SEP 01 2015

NOTE: "FAIR" INDICATES FEW OR NO CLOUDS BELOW 12,000 FEET WITH NO
SIGNIFICANT WEATHER AND/OR OBSTRUCTION TO VISIBILITY.

MIZ047>049-052>055-059>063-066>070-074>076-081>083-010700-
SOUTHEAST LOWER MICHIGAN

CITY           SKY/WX    TMP DP  RH WIND       PRES   REMARKS
ADRIAN           N/A     64  62  93 CALM      30.09F FOG
6HR MIN TEMP:  63; 6HR MAX TEMP:  77;

ALMA           FOG       59  59 100 CALM      30.07S VSB 1/4
ANN ARBOR      FOG       61  60  97 CALM      30.08F VSB 1/4
BAD AXE          N/A     61  61  99 CALM      30.07R FOG
DETROIT CITY     N/A     70  65  84 CALM      30.07S
6HR MIN TEMP:  69; 6HR MAX TEMP:  82;

DETROIT        FOG       72  68  88 CALM      30.08S VSB 1
6HR MIN TEMP:  71; 6HR MAX TEMP:  81;

FLINT            N/A     63  60  90 CALM      30.08S FOG
6HR MIN TEMP:  62; 6HR MAX TEMP:  78;

GROSSE ILE     FOG       72  70  94 CALM      30.06S VSB<1/4
HILLSDALE      MOCLDY    65  64  99 CALM      30.10S FOG
6HR MIN TEMP:  64; 6HR MAX TEMP:  76;

HOWELL           N/A     65  64  98 CALM      30.08S FOG

CITY           SKY/WX    TMP DP  RH WIND       PRES   REMARKS
JACKSON          N/A     64  63  96 SW3       30.09S FOG
6HR MIN TEMP:  64; 6HR MAX TEMP:  75;

LAMBERTVILLE     N/A     67  64  91 CALM      30.09S FOG
6HR MIN TEMP:  66; 6HR MAX TEMP:  77;

LANSING          N/A     65  64  97 CALM      30.08S
6HR MIN TEMP:  65; 6HR MAX TEMP:  77;

LAPEER         NOT AVBL
MASON          FOG       64  62  92 CALM      30.08S VSB 1/2
MONROE           N/A     64  63  96 CALM      30.07S FOG
6HR MIN TEMP:  64; 6HR MAX TEMP:  76;

MT. CLEMENS      N/A     64  63  96 CALM      30.06S
6HR MIN TEMP:  64; 6HR MAX TEMP:  75;

PONTIAC          N/A     64  63  96 CALM      30.08S FOG
6HR MIN TEMP:  64; 6HR MAX TEMP:  77;

PORT HOPE        N/A     67  65  93 SW6       30.03S
6HR MIN TEMP:  67; 6HR MAX TEMP:  70;

PORT HURON     FOG       59  59 100 CALM      30.08S VSB 1/2
TRI CITIES       N/A     67  64  90 SW7       30.06S FOG
6HR MIN TEMP:  67; 6HR MAX TEMP:  75;

YPSILANTI      FOG       67  63  87 CALM      30.08F VSB 3/4
6HR MIN TEMP:  66; 6HR MAX TEMP:  80;

$$
MIZ043>046-050>051-056>058-064>065-071>073-077>080-010700-
SOUTHWEST LOWER MICHIGAN

CITY           SKY/WX    TMP DP  RH WIND       PRES   REMARKS
BATTLE CREEK     N/A     67  64  90 CALM      30.09S
6HR MIN TEMP:  67; 6HR MAX TEMP:  77;

BENTON HARBOR    N/A     68  66  93 SE3       30.06S FOG
6HR MIN TEMP:  65; 6HR MAX TEMP:  74;

BIG RAPIDS     FOG       59  58  98 CALM      30.06S VSB 1/4
6HR MIN TEMP:  59; 6HR MAX TEMP:  72;

COLDWATER        N/A     65  65 100 CALM      30.09S FOG
6HR MIN TEMP:  65; 6HR MAX TEMP:  78;

HOLLAND          N/A     66  64  93 CALM      30.07S
6HR MIN TEMP:  64; 6HR MAX TEMP:  73;

GRAND RAPIDS     N/A     66  65  96 S3        30.07S FOG
6HR MIN TEMP:  65; 6HR MAX TEMP:  76;

KALAMAZOO        N/A     68  66  93 S3        30.08F FOG
6HR MIN TEMP:  64; 6HR MAX TEMP:  72;

MARSHALL       FOG       63  62  97 CALM      30.08F VSB 1/4
MUSKEGON         N/A     64  61  90 SE3       30.06S FOG
6HR MIN TEMP:  64; 6HR MAX TEMP:  72;

$$
MIZ016>042-010700-
NORTHERN LOWER MICHIGAN

CITY           SKY/WX    TMP DP  RH WIND       PRES   REMARKS
ALPENA           N/A     60  58  92 CALM      30.03R FOG
6HR MIN TEMP:  59; 6HR MAX TEMP:  67;

BEAVER ISLAND    N/A     66  65  96 SW12      30.00S FOG
6HR MIN TEMP:  66; 6HR MAX TEMP:  68;

BELLAIRE         N/A     61  60  96 CALM      30.03R FOG
6HR MIN TEMP:  61; 6HR MAX TEMP:  75;

CADILLAC       FOG       60  60  97 CALM      30.07R VSB 1/4
CHARLEVOIX       N/A     67  66  95 S3        30.04S
6HR MIN TEMP:  65; 6HR MAX TEMP:  70;

FRANKFORT        N/A     68  64  88 CALM      30.03S
GAYLORD          N/A     65  65 100 SW6       30.05S FOG
6HR MIN TEMP:  64; 6HR MAX TEMP:  75;

GRAYLING       FOG       58  56  92 CALM      30.06S VSB 1/4
6HR MIN TEMP:  57; 6HR MAX TEMP:  74;

HARBOR SPRINGS   N/A     64  63  97 CALM      30.01S
HOUGHTON LAKE    N/A     64  63  96 SW5       30.06S FOG
6HR MIN TEMP:  58; 6HR MAX TEMP:  75;

MANISTEE         N/A     61  57  88 CALM      30.04F
OSCODA           N/A     67  65  95 SW3       30.02S
6HR MIN TEMP:  65; 6HR MAX TEMP:  73;

PELLSTON         N/A     57  56  96 CALM      30.01F FOG
6HR MIN TEMP:  57; 6HR MAX TEMP:  71;

TRAVERSE CITY    N/A     67  64  90 S5        30.02S
6HR MIN TEMP:  67; 6HR MAX TEMP:  78;

$$
MIZ007>008-015-010700-
EASTERN UPPER MICHIGAN

CITY           SKY/WX    TMP DP  RH WIND       PRES   REMARKS
KINROSS          N/A     63  63 100 S7        30.00S
6HR MIN TEMP:  63; 6HR MAX TEMP:  70;

MACKINAC ISLAN   N/A     64  63  96 S7        30.00S
NEWBERRY       CLOUDY    66  66  99 SW12      29.99R FOG
6HR MIN TEMP:  66; 6HR MAX TEMP:  67;

S. S. MARIE    CLOUDY    63  62  97 SE3       30.00R FOG
6HR MIN TEMP:  63; 6HR MAX TEMP:  69;

$$
MIZ004>006-011>014-085-010700-
CENTRAL UPPER MICHIGAN

CITY           SKY/WX    TMP DP  RH WIND       PRES   REMARKS
MANISTIQUE     FOG       64  63  97 S12       29.99R VSB 1/4
6HR MIN TEMP:  63; 6HR MAX TEMP:  65;

ESCANABA         N/A     64  63  94 S3        29.97S
6HR MIN TEMP:  64; 6HR MAX TEMP:  70;

MENOMINEE        N/A     66  63  88 SW6       29.98S
6HR MIN TEMP:  66; 6HR MAX TEMP:  73;

SAWYER-GWINN     N/A     65  64  94 SW5       29.97S FOG
6HR MIN TEMP:  65; 6HR MAX TEMP:  79;

$$
MIZ001>003-009>011-084-010700-
WESTERN UPPER MICHIGAN

CITY           SKY/WX    TMP DP  RH WIND       PRES   REMARKS
IRON MOUNTAIN    N/A     65  64  97 SE3       29.97S FOG
6HR MIN TEMP:  65; 6HR MAX TEMP:  77;

HOUGHTON         N/A     69  65  86 CALM      29.90S
6HR MIN TEMP:  65; 6HR MAX TEMP:  79;

IRONWOOD         N/A     72  70  94 SW10      29.90S
6HR MIN TEMP:  72; 6HR MAX TEMP:  75;

$$

ABBREVIATIONS USED IN REMARKS
   TC - TEMPERATURE IN CELSIUS
  WCI - WIND CHILL INDEX
   HX - HEAT INDEX
  VSB - VISIBILITY



USA.gov is the U.S. government's official web portal to all federal, state and local government web resources and services.